BEIJING 1 1 28890U 05043A 26236.92845752 .00000085 00000+0 25941-4 0 9997 2 28890 98.2998 10.5589 0015866 68.3862 291.9028 14.63566976110704 HUANJING 1A (HJ-1A) 1 33320U 08041A 26236.93885478 .00000694 00000+0 89115-4 0 9991 2 33320 97.6749 220.1471 0017301 274.0770 85.8467 14.84127090968604 HUANJING 1B (HJ-1B) 1 33321U 08041B 26236.93967954 .00000980 00000+0 12443-3 0 9999 2 33321 97.6582 223.1087 0035330 320.1124 39.7495 14.83433460968603 YAOGAN-4 1 33446U 08061A 26236.57172471 .00000719 00000+0 94285-4 0 9996 2 33446 97.9308 169.5834 0013503 202.5532 157.5090 14.83311602955808 DEIMOS-1 1 35681U 09041A 26236.89364041 .00000459 00000+0 74768-4 0 9994 2 35681 97.7488 31.1798 0001504 34.8966 325.2342 14.75297724917010 UK-DMC 2 1 35683U 09041C 26236.89475282 .00000831 00000+0 12758-3 0 9990 2 35683 97.8919 10.2191 0001722 73.1695 286.9703 14.76118740916704 DMC3-FM1 1 40715U 15032A 26236.89884329 .00000496 00000+0 62937-4 0 9997 2 40715 97.6369 99.3495 0005359 171.1208 189.0104 14.85800270600116 DMC3-FM2 1 40716U 15032B 26236.92058081 .00001186 00000+0 14220-3 0 9998 2 40716 97.6421 100.9904 0005723 177.2068 182.9181 14.85811197600113 DMC3-FM3 1 40717U 15032C 26236.94441728 .00000581 00000+0 72679-4 0 9996 2 40717 97.6472 102.8092 0004904 174.5435 185.5835 14.85798764600127